Other Surface Observations
Issued by NWS

Home | Current Version | Previous Version | Text Only | Print | Product List | Glossary On
Versions: 1 2 3 4 5 6 7 8 9 10 11 12 13 14 15 16 17 18 19 20 21 22 23 24 25 26 27 28 29 30 31 32 33 34 35 36 37 38 39 40 41 42 43 44 45 46 47 48 49 50
000
SXUS52 KTAE 302306
OSOTAE
OSOTAE
North Florida/South Alabama/Southwest Georgia Weather Roundup
National Weather Service Tallahassee Florida
700 PM EDT SAT JUL 30 2016

Note: "fair" indicates few or no clouds below 12,000 feet with no
significant weather and/or obstructions to visibility.

!FLZ017-115-028-034-025-310000
...North Florida...

CITY           SKY/WX    TMP DP  RH WIND       PRES   REMARKS
TALLAHASSEE    PTSUNNY   88  73  61 S7        30.00S HX  95
APALACHICOLA   PTSUNNY   86  79  79 W8        30.00F HX  99
PERRY          PTSUNNY   88  76  68 W6        30.01S HX  98
CROSS CITY       N/A     91  74  57 W10       30.00R HX 100
JACKSONVILLE   MOSUNNY   86  74  67 SW9       29.99R THUNDER HX  94
$$

!FLZ112-006-005-002-011-310000
...Florida Panhandle...

CITY           SKY/WX    TMP DP  RH WIND       PRES   REMARKS
MARIANNA       CLOUDY    82  74  76 W5        29.98F
BONIFAY        MOCLDY    77  74  90 CALM      30.00F
PANAMA CITY NW FAIR      88  76  67 SW7       29.98F HX  99
TYNDALL AFB    MOSUNNY   87  77  72 SW9       30.00F HX  99
TYND DRONE APT NOT AVBL
DE FUNIAK SPR  FAIR      84  76  77 CALM      30.01F HX  93
EGLIN AFB      NOT AVBL
DESTIN         SUNNY     90  80  72 VRB5      29.99F HX 107
HURLBURT       NOT AVBL
CRESTVIEW      MOSUNNY   90  73  57 S5        30.00F HX  98
PENSACOLA      SUNNY     89  75  63 SW12      29.99S HX  99
$$

!ALZ063-066-310000
...South Alabama...

CITY           SKY/WX    TMP DP  RH WIND       PRES   REMARKS
DOTHAN         CLOUDY    81  73  76 SW9       30.03F
OZARK CAIRNS   CLOUDY    81  76  83 S8        29.99F
FT RUCKER HELI CLOUDY    85  74  69 SW14      29.99S HX  92
RUCKER HELI 3  FAIR      84  74  70 SW12      30.01F HX  91
RUCKER HELI 2  FAIR      83  73  72 SW10      29.99F
FLORALA APT    CLOUDY    84  75  74 SE3       30.02F HX  92
ANDALUSIA      LGT RAIN  85  76  74 SE5       29.99F HX  94
TROY           MOSUNNY   88  75  65 S7        29.99F HX  97
EUFALA         CLOUDY    81  68  64 N9G24     30.02R THUNDER
MOBILE         PTSUNNY   87  76  69 S7        30.00S THUNDER HX  97
$$

!GAZ120>161-310000
...Southwest and South Central Georgia...

CITY           SKY/WX    TMP DP  RH WIND       PRES   REMARKS
THOMASVILLE      N/A     90  77  66 SW6       30.01R HX 102
BAINBRIDGE     CLOUDY    86  75  70 SW3       30.00S HX  95
MOODY AFB      SUNNY     95  67  39 W10       29.98R HX  99
VALDOSTA       SUNNY     90  75  61 VRB5      29.99R HX 100
MOULTRIE       CLOUDY    88  73  62 W6        30.00R HX  96
BLAKELY        CLOUDY    88  73  62 SW8       30.00S HX  96
ALBANY         MOSUNNY   93  69  45 VRB7      29.98S HX  98
TIFTON         FAIR      94  69  42 SW8       29.98R HX  99
FITZGERALD     HVY RAIN  87  77  72 NW12G21   30.00R HX  97
CORDELE        MOCLDY    91  70  51 NE3       29.99F HX  96
AMERICUS       MOCLDY    86  73  66 N3        30.02R HX  93
HOMERVILLE     FAIR      97  66  36 W9        29.98R HX 100
$$

!GMZ750-755-770-775-310000
...Coastal and Buoy Obs...

STATION/POSITION TIME  TEMP    WIND        PRES    VSBY  WAVE
                       AIR SEA DIR/SP/G                  HT/PER
                 (UTC) (F)     (DEG/KT/KT) (MB)    (MI)  (FT/S)
KEATON BEACH     2300   86     260/  7/  8 1015.8R
CEDAR KEY        2200   87     240/  5/  7 1016.4F
C TOWER          2300   85     250/  9/ 10 1016.8F
APALACHICOLA BUO 2250   88 91  270/  6/  8 1016.4F         1
PANAMA CITY BUOY 2150   86 88  250/  6/  8 1016.8          1/ 4
MOBILE BUOY      2200   86 89  360/  2/  4 1016.1F
ORANGE BCH AL BU 2250   86 89  210/ 10/ 14 1015.8F         1/ 3
$$




USA.gov is the U.S. government's official web portal to all federal, state and local government web resources and services.